CW3071 Weather Reports


time (UTC)temp
F
wind
direction
speed
knots
gust
knots
rain 1hr
in
rain 24hr
in
rain mn
in
humidity
%
barometer
mb
20260905061559 66 0 0.0 2.6 0.00 0.00 0.00 36 1015.6
20260905060109 66 103 0.0 2.6 0.00 0.00 0.00 35 1015.5
20260905054603 68 87 0.9 2.6 0.00 0.00 0.00 33 1015.3
20260905053102 68 0 0.0 3.5 0.00 0.00 0.00 33 1015.1
20260905051600 69 81 1.7 3.5 0.00 0.00 0.00 31 1015.1
20260905050108 70 153 0.0 1.7 0.00 0.00 0.00 30 1015.0
20260905044604 71 0 0.0 1.7 0.00 0.00 0.00 30 1015.0
20260905043103 72 0 0.0 1.7 0.00 0.00 0.00 28 1015.1
20260905041558 74 151 0.9 4.3 0.00 0.00 0.00 27 1015.1
20260905040105 75 0 0.9 4.3 0.00 0.00 0.00 25 1015.1
20260905034601 77 165 2.6 7.8 0.00 0.00 0.00 24 1015.0
20260905033105 77 188 3.5 7.0 0.00 0.00 0.00 23 1015.0
20260905031609 79 201 4.3 7.0 0.00 0.00 0.00 22 1015.0
20260905030106 79 186 2.6 7.0 0.00 0.00 0.00 22 1015.0
20260905024557 79 171 3.5 7.8 0.00 0.00 0.00 24 1014.7
20260905023104 79 185 1.7 4.3 0.00 0.00 0.00 25 1014.6
20260905021603 81 176 0.9 4.3 0.00 0.00 0.00 23 1014.2
20260905014559 83 174 1.7 7.0 0.00 0.00 0.00 20 1014.0
20260905013104 85 151 3.5 9.6 0.00 0.00 0.00 19 1013.8
20260905011600 87 192 5.2 12.2 0.00 0.00 0.00 18 1013.7
20260905010111 87 160 5.2 13.9 0.00 0.00 0.00 20 1013.4
20260905004610 88 177 7.0 15.6 0.00 0.00 0.00 20 1013.4
20260905003103 88 155 7.0 15.6 0.00 0.00 0.00 20 1013.3
20260905001602 89 150 8.7 14.8 0.00 0.00 0.00 19 1013.1
20260905000107 88 152 6.1 16.5 0.00 0.00 0.00 20 1013.2
20260904234601 90 174 7.0 14.8 0.00 0.00 0.00 19 1013.3
20260904233058 90 165 9.6 15.6 0.00 0.00 0.00 19 1013.3
20260904231600 90 176 6.1 14.8 0.00 0.00 0.00 18 1013.1
20260904230111 89 186 7.0 17.4 0.00 0.00 0.00 18 1013.3
20260904224558 90 100 5.2 10.4 0.00 0.00 0.00 18 1013.2
20260904223105 90 196 6.1 20.0 0.00 0.00 0.00 18 1013.2
20260904221608 90 146 9.6 20.0 0.00 0.00 0.00 18 1013.2
20260904220121 90 213 9.6 22.6 0.00 0.00 0.00 18 1013.3
20260904214603 89 178 7.0 22.6 0.00 0.00 0.00 18 1013.3
20260904213103 89 209 8.7 25.2 0.00 0.00 0.00 18 1013.3
20260904211607 90 189 7.0 19.1 0.00 0.00 0.00 17 1013.2
20260904204603 90 266 3.5 12.2 0.00 0.00 0.00 17 1013.2
20260904203103 89 163 5.2 13.9 0.00 0.00 0.00 18 1013.4
20260904201602 89 187 6.1 13.9 0.00 0.00 0.00 18 1013.4
20260904200113 88 224 5.2 19.1 0.00 0.00 0.00 18 1013.6
20260904194606 88 185 7.0 16.5 0.00 0.00 0.00 19 1013.7
20260904193104 88 172 6.1 18.2 0.00 0.00 0.00 20 1013.7
20260904191559 87 147 5.2 13.9 0.00 0.00 0.00 20 1013.8
20260904184613 86 203 6.1 19.1 0.00 0.00 0.00 20 1014.1
20260904183103 86 242 7.8 17.4 0.00 0.00 0.00 21 1014.3
20260904181602 85 182 7.8 16.5 0.00 0.00 0.00 22 1014.5
20260904180110 85 167 7.0 15.6 0.00 0.00 0.00 22 1014.6
20260904174622 84 226 6.1 14.8 0.00 0.00 0.00 22 1014.9
20260904173106 84 176 7.8 15.6 0.00 0.00 0.00 24 1014.9
20260904171604 83 156 7.8 18.2 0.00 0.00 0.00 24 1015.0
20260904170055 83 177 8.7 18.2 0.00 0.00 0.00 24 1014.9
20260904164558 83 157 6.1 18.2 0.00 0.00 0.00 24 1015.0
20260904163106 82 201 6.1 15.6 0.00 0.00 0.00 25 1014.9
20260904161607 81 152 7.0 17.4 0.00 0.00 0.00 26 1014.8
20260904160106 81 176 6.1 14.8 0.00 0.00 0.00 26 1014.8
20260904154559 80 190 7.0 11.3 0.00 0.00 0.00 26 1014.8
20260904153129 77 204 0.9 5.2 0.00 0.00 0.00 28 1014.7
20260904151606 75 134 0.0 5.2 0.00 0.00 0.00 28 1014.9
20260904150100 74 136 0.9 6.1 0.00 0.00 0.00 28 1014.9
20260904144558 72 161 0.0 3.5 0.00 0.00 0.00 30 1015.0
20260904143110 70 82 0.9 3.5 0.00 0.00 0.00 31 1015.0
20260904141558 66 41 0.0 2.6 0.00 0.00 0.00 36 1015.1
20260904140103 62 4 0.0 1.7 0.00 0.00 0.00 38 1015.0
20260904134609 60 4 1.7 3.5 0.00 0.00 0.00 37 1014.9
20260904133105 61 355 0.9 3.5 0.00 0.00 0.00 35 1014.7
20260904131605 61 80 0.0 0.9 0.00 0.00 0.00 36 1014.2
20260904130104 59 0 0.0 1.7 0.00 0.00 0.00 38 1014.1
20260904124600 58 350 0.9 3.5 0.00 0.00 0.00 38 1014.0
20260904123102 57 350 2.6 4.3 0.00 0.00 0.00 38 1014.0
20260904121601 57 350 0.9 2.6 0.00 0.00 0.00 38 1013.7
20260904120111 56 350 0.0 2.6 0.00 0.00 0.00 39 1013.5
20260904114600 56 0 0.0 0.0 0.00 0.00 0.00 39 1013.7
20260904113106 57 0 0.0 0.9 0.00 0.00 0.00 38 1013.8
20260904111603 58 0 0.9 3.5 0.00 0.00 0.00 36 1013.7
20260904110104 57 350 1.7 4.3 0.00 0.00 0.00 37 1013.8
20260904104559 58 350 0.9 3.5 0.00 0.00 0.00 36 1013.9
20260904103102 58 350 0.9 2.6 0.00 0.00 0.00 35 1013.9
20260904101602 58 350 0.0 1.7 0.00 0.00 0.00 35 1013.9
20260904100056 58 350 0.0 3.5 0.00 0.00 0.00 35 1014.0
20260904094610 58 350 1.7 4.3 0.00 0.00 0.00 34 1014.0
20260904093114 59 80 0.9 5.2 0.00 0.00 0.00 33 1013.9
20260904091600 59 350 2.6 4.3 0.00 0.00 0.00 32 1014.0
20260904084557 58 350 0.0 2.6 0.00 0.00 0.00 32 1014.0
20260904083106 59 0 0.0 2.6 0.00 0.00 0.00 32 1014.0
20260904081558 59 0 0.0 3.5 0.00 0.00 0.00 32 1014.1
20260904074605 59 0 0.0 3.5 0.00 0.00 0.00 31 1014.3
20260904073107 59 0 0.0 4.3 0.00 0.00 0.00 31 1014.3
20260904071601 59 350 0.9 3.5 0.00 0.00 0.00 31 1014.2
20260904070109 60 350 0.9 3.5 0.00 0.00 0.00 31 1014.3
20260904064604 60 104 0.0 1.7 0.00 0.00 0.00 31 1014.1
20260904063103 61 104 0.0 3.5 0.00 0.00 0.00 30 1014.2